"Pseudo-MPEC" for P21XbLJ

Created 2024 Aug 19 16:22:03 UT using Find_Orb

Click here for an explanation of pseudo-MPECs

 
 Astrometry: 
     P21XbLJ* C2024 08 11.31313419 30 02.144-35 28 33.87   ~8BBq 21.29wXNEOCPF52
     P21XbLJ  C2024 08 11.32034619 30 04.393-35 28 32.94   ~8BBq 21.38wXNEOCPF52
     P21XbLJ  C2024 08 11.33477519 30 08.887-35 28 30.64   ~8BBq 21.25wXNEOCPF52

Station data:
(F52) Pan-STARRS 2, Haleakala  (N20.707382 W156.255910)  US/Hawaii.
   Observers J. Bulger, T. Dukes, T. Lowe, A. Schultz, M. Willman. Measurers
   K. Chambers, S. Chastel, T. de Boer, L. Denneau, J. Fairlamb, H.
   Flewelling, M. Huber, C.-C. Lin, E. Magnier, Y. Ramanjooloo, R. Wainscoat,
   R. Weryk. 1.8-m Ritchey-Chrétien + CCD.

Orbital elements:  P21XbLJ
   Perihelion 2024 Aug 6.28803 +/- 33.4 TT =  6:54:45 (JD 2460528.78803)
Epoch 2024 Aug 11.0 TT = JDT 2460533.5   Earth MOID: 0.1144   Ma: 0.0224
M   1.82614596 +/- 26               (J2000 ecliptic)             AutoNEOCP
n   0.38755439 +/- 0.354            Peri.  227.84872 +/- 120
a   1.86314907 +/- 1.14             Node    82.77918 +/- 52
e   0.3956001 +/- 0.25              Incl.    1.96978 +/- 8
P   2.543/928.884d         H 24.03  G  0.15   U 12.0  SR
q 1.12608697 +/- 0.34    Q 2.60021118 +/- 38.5
From 3 observations 2024 Aug. 11 (31.2 min); mean residual 0".02
Residuals in arcseconds: 
240811 F52  .00   .03+    240811 F52  .00   .04-    240811 F52  .00   .01+    

Ephemerides (geocentric):
Date (UTC) HH   RA             Dec           delta  r     elong  mag " sig PA
---- --------  ------------   ------------  ------ ------ -----  --- --------
2024 08 19 16  20 17 27.725   -34 07 40.93  .14023 1.1343 148.9 21.3  32d 111
2024 08 19 17  20 17 41.489   -34 07 02.16  .14029 1.1343 148.9 21.3  32d 111
2024 08 19 18  20 17 55.245   -34 06 23.26  .14034 1.1344 148.9 21.3  32d 111
2024 08 19 19  20 18 08.994   -34 05 44.23  .14040 1.1344 148.9 21.3  32d 111
2024 08 19 20  20 18 22.735   -34 05 05.07  .14045 1.1345 148.9 21.3  32d 111
2024 08 19 21  20 18 36.468   -34 04 25.77  .14051 1.1345 148.9 21.3  32d 111
2024 08 19 22  20 18 50.193   -34 03 46.35  .14057 1.1346 149.0 21.3  32d 112
2024 08 19 23  20 19 03.911   -34 03 06.79  .14062 1.1347 149.0 21.3  32d 112
2024 08 20 00  20 19 17.621   -34 02 27.11  .14068 1.1347 149.0 21.3  32d 112
2024 08 20 01  20 19 31.323   -34 01 47.30  .14074 1.1348 149.0 21.3  33d 112
2024 08 20 02  20 19 45.017   -34 01 07.35  .14079 1.1348 149.0 21.3  33d 112
2024 08 20 03  20 19 58.703   -34 00 27.28  .14085 1.1349 149.0 21.3  33d 112
2024 08 20 04  20 20 12.381   -33 59 47.08  .14091 1.1349 149.0 21.3  33d 112
2024 08 20 05  20 20 26.051   -33 59 06.75  .14097 1.1350 149.0 21.3  33d 112
2024 08 20 06  20 20 39.714   -33 58 26.29  .14102 1.1350 149.0 21.3  33d 112
2024 08 20 07  20 20 53.368   -33 57 45.70  .14108 1.1351 149.0 21.3  33d 112
2024 08 20 08  20 21 07.014   -33 57 04.99  .14114 1.1351 149.0 21.3  33d 112
2024 08 20 09  20 21 20.652   -33 56 24.14  .14120 1.1352 149.1 21.3  33d 112
2024 08 20 10  20 21 34.281   -33 55 43.17  .14126 1.1352 149.1 21.3  33d 112
2024 08 20 11  20 21 47.903   -33 55 02.08  .14132 1.1353 149.1 21.3  33d 112
2024 08 20 12  20 22 01.516   -33 54 20.86  .14137 1.1353 149.1 21.3  33d 112
2024 08 20 13  20 22 15.121   -33 53 39.51  .14143 1.1354 149.1 21.3  33d 112
2024 08 20 14  20 22 28.717   -33 52 58.03  .14149 1.1354 149.1 21.3  33d 112
2024 08 20 15  20 22 42.305   -33 52 16.43  .14155 1.1355 149.1 21.3  33d 112
2024 08 20 16  20 22 55.885   -33 51 34.71  .14161 1.1356 149.1 21.3  33d 113
2024 08 20 17  20 23 09.456   -33 50 52.85  .14167 1.1356 149.1 21.3  33d 113
2024 08 20 18  20 23 23.019   -33 50 10.88  .14173 1.1357 149.1 21.3  33d 113
2024 08 20 19  20 23 36.573   -33 49 28.78  .14179 1.1357 149.1 21.3  33d 113
2024 08 20 20  20 23 50.119   -33 48 46.56  .14185 1.1358 149.1 21.3  33d 113
2024 08 20 21  20 24 03.656   -33 48 04.21  .14191 1.1358 149.2 21.3  33d 113
2024 08 20 22  20 24 17.184   -33 47 21.74  .14197 1.1359 149.2 21.3  33d 113
2024 08 20 23  20 24 30.704   -33 46 39.14  .14203 1.1359 149.2 21.3  33d 113
2024 08 21 00  20 24 44.215   -33 45 56.43  .14209 1.1360 149.2 21.3  34d 113
2024 08 21 01  20 24 57.717   -33 45 13.59  .14216 1.1361 149.2 21.3  34d 113
2024 08 21 02  20 25 11.210   -33 44 30.62  .14222 1.1361 149.2 21.3  34d 113
2024 08 21 03  20 25 24.695   -33 43 47.54  .14228 1.1362 149.2 21.3  34d 113
2024 08 21 04  20 25 38.171   -33 43 04.33  .14234 1.1362 149.2 21.3  34d 113
2024 08 21 05  20 25 51.638   -33 42 21.01  .14240 1.1363 149.2 21.3  34d 113
2024 08 21 06  20 26 05.095   -33 41 37.56  .14246 1.1363 149.2 21.3  34d 113
2024 08 21 07  20 26 18.544   -33 40 53.99  .14253 1.1364 149.2 21.3  34d 113
2024 08 21 08  20 26 31.984   -33 40 10.30  .14259 1.1364 149.3 21.3  34d 113
2024 08 21 09  20 26 45.415   -33 39 26.49  .14265 1.1365 149.3 21.3  34d 113
2024 08 21 10  20 26 58.837   -33 38 42.57  .14271 1.1366 149.3 21.3  34d 113
2024 08 21 11  20 27 12.250   -33 37 58.52  .14278 1.1366 149.3 21.3  34d 113
2024 08 21 12  20 27 25.654   -33 37 14.35  .14284 1.1367 149.3 21.3  34d 113
2024 08 21 13  20 27 39.048   -33 36 30.07  .14290 1.1367 149.3 21.3  34d 113
2024 08 21 14  20 27 52.434   -33 35 45.66  .14297 1.1368 149.3 21.3  34d 114
2024 08 21 15  20 28 05.810   -33 35 01.14  .14303 1.1368 149.3 21.3  34d 114